Location: Izdebno
(52.6670°N, 16.2170°E)
Time: 04:30:06
(UTC+02:00)

SR - Pass Details

Date: 03 March 2024
Orbit: 577 x 862 km, 66.7° (Epoch: 22 April)

Event Time Altitude Azimuth Distance (km) Brightness Sun altitude
Rises 18:34:17 0° 308° (NW) 3,343 ? -9.3°
Reaches altitude 10° 18:37:31 10° 325° (NW) 2,360 ? -9.7°
Maximum altitude 18:41:20 19° 10° (N) 1,746 ? -10.3°
Drops below altitude 10° 18:44:58 10° 56° (NE) 2,221 ? -10.9°
Enters shadow 18:45:16 - 59° (ENE) 2,298 ? -10.9°
Sets 18:47:53 0° 75° (ENE) 3,080 - -11.3°
